Find SpaceMobile-002

NORAD ID: 61048 Int'l Des: 2024-163 Owner: ASTS Country: US Constellation: bluewalker operational
LEOCIRCULAR

Live Position

Loading 3D Globe...

About SpaceMobile-002

Description loading...

Upcoming Passes

Passes for default location (London). Set your location on the main map for personalized predictions.

Altitude History

Loading altitude history...

Two-Line Element Set

1 61048U 24163D 26105.68744722 .00003762 00000-0 18219-3 0 9991
2 61048 52.9689 236.5544 0006081 298.3201 61.7179 15.20960805 88259
Epoch: Apr 15, 2026 • Age: 23 hours

Current Status

Altitude 506.5 km
Velocity 7.61 km/s
Sub-Earth Point 16.80°N, 34.78°W
Launch Date Sep 12, 2024
Age 1.5 years
Type other

Technical Details

Classification Payload
Mass 1500.00 kg
Dry Mass 1500.00 kg
Total Mass 1500.00 kg
Length 1.00 m
Diameter 1.00 m
Span 9.00 m
Shape Box + plate
Manufacturer ASTS
Bus Type BW3
Phase Status In Orbit
Owner/State ASTS/US

Most Searched